Notices

What's New in latest Release from April 7th, 2021:

- Updated Glossary, including Speed of Maximum Gust, and Total Hourly Precipitation

- Updated national and regional climate services offices contacts and prices information

- Addition of station inventory lists for 1981-2010, 1971-2000, and 1961-1990 Normals.

Please note that as of June 10, 2021 UTC dates are available for all years 2004-present, and DBA is working on populating the remaining years (2003 to 1953).

If you haven't already, please take our survey and provide feedback about our website: https://eccc.sondage-survey.ca/f/LanguageSelection.aspx?s=442ca660-fcf1-47c0-95a9-59707d6fd709

Hourly Data Report for December 21, 2020

FORT GOOD HOPE CS
NORTHWEST TERRITORIES
Current Station Operator: ECCC - MSC

66°14'32.044" N
128°38'39.081" W
81.70 m
2201450
71491
ZGH

Download Data

Hourly Data (December 2020)
Hourly Data Report for December 21, 2020
TIME
LST
Temp Definition
°C
Dew Point Definition
°C
Rel Hum Definition
%
Precip. Amount Definition
mm

Wind Dir Definition
10's deg

Wind Spd Definition
km/h
Visibility Definition
km
Stn Press Definition
kPa
Hmdx Definition


Wind Chill Definition


Weather Definition


00:00 -35.5 -39.3 68 0.0 23 6   100.01   -43 LegendNANA
01:00 -36.3 -40.1 68 0.0 21 6   100.07   -44 LegendNANA
02:00 -35.9 -39.7 68 0.0 23 5   100.16   -42 LegendNANA
03:00 -35.4 -39.2 68 0.0 21 4   100.21   -40 LegendNANA
04:00 -35.0 -38.7 69 0.1 21 3   100.25   -39 LegendNANA
05:00 -34.5 -38.2 69 0.1 18 4   100.27   -39 LegendNANA
06:00 -34.0 -37.7 69 0.0 21 3   100.27   -38 LegendNANA
07:00 -33.6 -37.3 70 0.0 0 1   100.27   -35 LegendNANA
08:00 -33.4 -37.0 70 0.0   0   100.33     LegendNANA
09:00 -32.6 -36.2 70 0.4 13 2   100.31   -35 LegendNANA
10:00 -32.5 -36.1 71 0.1 36 2   100.34   -35 LegendNANA
11:00 -32.4 -35.9 71 0.0 4 1   100.36   -34 LegendNANA
12:00 -32.6 -36.2 70 0.0 0 1   100.39   -34 LegendNANA
13:00 -31.9 -35.4 71 0.0 8 2   100.42   -34 LegendNANA
14:00 -32.2 -35.7 71 0.0 6 1   100.43   -33 LegendNANA
15:00 -33.0 -36.5 70 0.0 36 3   100.46   -37 LegendNANA
16:00 -33.4 -36.9 70 0.0 36 3   100.51   -37 LegendNANA
17:00 -34.8 -38.4 69 0.0 3 1   100.50   -36 LegendNANA
18:00 -35.6 -39.4 69 0.0 0 1   100.54   -37 LegendNANA
19:00 -34.5 -38.1 70 0.0 1 2   100.53   -37 LegendNANA
20:00 -35.8 -39.5 69 0.0 6 1   100.52   -37 LegendNANA
21:00 -35.5 -39.2 69 0.0 5 3   100.51   -39 LegendNANA
22:00 -36.9 -40.6 69 0.0 6 1   100.55   -38 LegendNANA
23:00 -36.3 -40.0 69 0.0 8 4   100.49   -41 LegendNANA

Notes on Data Quality.

Legend

  • E = Estimated
  • M = Missing
  • NA = Not Available*
  • [empty] = Indicates an unobserved value
Date modified: